Погода в Дебдирге

Россия / Республика Саха (Якутия)     62°24′48″N   132°52′46″E
темп.,
°C
ветер,
м/с
пор.,
м/с
влажн.,
%
обл.,
%
осадки,
мм/ч
давл.,
гПа
погр.,
м
1 марта, пн
пн100:00−27з3798100 0.1 1022210
03:00−29з2698100 0.1 1023172
06:00−32зюз239897 0.0 102449
09:00−28з369499 0.0 1024488
12:00−26з2588100 0.1 1024751
15:00−25з2488100 0.1 1024821
18:00−27з2497100 0.1 1025134
21:00−28з1298100 0.1 102543
2 марта, вт
вт200:00−29з129898 0.0 102519
03:00−31з129997 0.1 102519
06:00−33з229995 0.0 102619
09:00−31з129884 0.0 102592
12:00−27з238784 0.0 1025559
15:00−27з228992 0.1 1024663
18:00−28з1298100 0.1 102528
21:00−29зсз1299100 0.3 102542
3 марта, ср
ср300:00−30зсз1199100 0.1 102427
03:00−30зсз1198100 0.1 102433
06:00−30зсз1198100 0.1 102323
09:00−29зсз1296100 0.1 1022168
12:00−27з1189100 0.1 1020497
15:00−27зсз2289100 0.1 1019631
18:00−29зсз2297100 0.1 101834
21:00−30з2298100 0.1 101879
4 марта, чт
чт400:00−30зсз2598100 0.1 1017217
03:00−31з2598100 0.1 1016214
06:00−33з2598100 0.1 1016191
09:00−32зсз3595100 0.1 1017377
12:00−30з2490100 0.0 1017634
15:00−29з3589100 0.1 1018687
18:00−32з2396100 0.0 101962
21:00−35зсз379899 0.0 1020140
5 марта, пт
пт500:00−35з389680 0.0 1020221
03:00−35з389590 0.0 1021287
06:00−37з3895100 0.0 1021253
09:00−36зсз3694100 0.0 1022281
12:00−33з3593100 0.0 1022316
15:00−30з3791100 0.0 1022447
18:00−31з3894100 0.0 1022457
21:00−31зсз3995100 0.0 1022429